Погода в Федоровском

Россия / Санкт-Петербург и Ленинградская область     59°39′43″N   30°31′52″E
темп.,
°C
ветер,
м/с
пор.,
м/с
влажн.,
%
обл.,
%
осадки,
мм/ч
давл.,
гПа
погр.,
м
1 августа, вс
вс100:00+15юз37785 0.0 1002151
03:00+14ююз39978 0.0 1003228
06:00+14ю3893100 0.0 1003234
09:00+15ююв2495100 1.1 1003204
12:00+17ююз269243 2.8 1002239
15:00+23юз4855100 4.6 10012180
18:00+22зюз485669 0.1 10011422
21:00+17зюз512863 0.8 1002668
2 августа, пн
пн200:00+15юз3897100 0.0 1004228
03:00+14ююз3997100 0.0 1005240
06:00+14юз3991100 0.0 1005285
09:00+18юз466998 0.0 1005701
12:00+21ю3458100 0.0 10041259
15:00+17ююв3680100 0.0 1003400
18:00+16ююв2594100 0.7 1002225
21:00+15з1298100 2.9 100165
3 августа, вт
вт300:00+15з119699 0.4 100014
03:00+14зюз259697 0.8 1000153
06:00+13з259832 1.4 1001148
09:00+17зюз47835 2.1 1001607
12:00+20зюз675270 0.1 10021821
15:00+17зюз6106187 0.3 10051545
18:00+16з696836 0.3 10061171
21:00+14з410752 0.3 1008487
4 августа, ср
ср400:00+11зюз38805 0.0 1010151
03:00+11зюз368333 0.0 1011106
06:00+12з127674 0.0 101342
09:00+17зюз235834 0.0 1014481
12:00+20з233792 0.0 10142320
15:00+19зсз224492 0.0 10161002
18:00+19сз225022 0.0 1016590
21:00+14всв1171100 0.0 101610
5 августа, чт
чт500:00+13юв227352 0.0 101714
03:00+11ююв227943 0.0 101715
06:00+11ююв117922 0.0 101618
09:00+18ююв235246 0.0 1016348
12:00+21ююв24437 0.0 10161270
15:00+21ю244743 0.0 1015582
18:00+22ююв344240 0.0 10141876
21:00+17в236194 0.0 101449